Regional Weather Roundup
Issued by NWS

Home | Current Version | Previous Version | Graphics & Text | Print | Product List | Glossary On
Versions: 1 2 3 4 5 6 7 8 9 10 11 12 13 14 15 16 17 18 19 20 21 22 23 24 25 26 27 28 29 30 31 32 33 34 35 36 37 38 39 40 41 42 43 44 45 46 47 48 49 50
000
ASUS44 KMEG 270600
RWRTN
TENNESSEE HOURLY STATE WEATHER ROUNDUP
NATIONAL WEATHER SERVICE MEMPHIS TN
1200 AM CST SAT DEC 27 2014

TNZ002-004-019-021-049-052-054-088>092-270700-
WEST TENNESSEE

CITY           SKY/WX    TMP DP  RH WIND       PRES   REMARKS
MEMPHIS INTL   CLOUDY    53  44  71 S8        30.14S
NWS MEMPHIS      N/A     51 N/A N/A MISG        N/A
JACKSON        CLOUDY    51  40  65 S12G18    30.15F
DYERSBURG      CLOUDY    50  34  53 SE7       30.15F
UNION CITY     CLOUDY    45  39  81 SE6       30.13F
PARIS          MOCLDY    45  37  76 SE6       30.16F
LEXINGTON      CLOUDY    48  37  66 S6        30.17F
SAVANNAH       CLOUDY    45  39  81 SE3       30.19F
$$

TNZ008-025-027-028-033-062-065-066-270700-
NORTH MIDDLE TENNESSEE

CITY           SKY/WX    TMP DP  RH WIND       PRES   REMARKS
NASHVILLE      MOCLDY    48  37  65 S3        30.21S
CLARKSVILLE    CLOUDY    44  38  79 CALM      30.20S
CROSSVILLE     CLOUDY    47  33  58 S5        30.23S
$$

TNZ061-075-076-078-094-096-097-270700-
SOUTH MIDDLE TENNESSEE

CITY           SKY/WX    TMP DP  RH WIND       PRES   REMARKS
TULLAHOMA      PTCLDY    43  36  75 S3        30.23S
WINCHESTER     PTCLDY    46  37  71 CALM      30.23F
SHELBYVILLE    MOCLDY    46  39  76 CALM      30.23R
$$

TNZ017-018-042-046-047-270700-
NORTHEAST TENNESSEE

CITY           SKY/WX    TMP DP  RH WIND       PRES   REMARKS
TRI CITIES     CLOUDY    43  30  60 CALM      30.23R
ELIZABETHTON   CLEAR     39  25  56 N5        30.22S
$$

TNZ012-013-036-069-073-074-270700-
CENTRAL EAST TENNESSEE

CITY           SKY/WX    TMP DP  RH WIND       PRES   REMARKS
KNOXVILLE      MOCLDY    39  36  89 CALM      30.25F
OAK RIDGE      CLOUDY    41  37  86 CALM      30.27S
GATLINBURG     CLEAR     37  34  87 CALM      30.26R
$$

TNZ083-085-099-270700-
SOUTHEAST TENNESSEE

CITY           SKY/WX    TMP DP  RH WIND       PRES   REMARKS
CHATTANOOGA    PTCLDY    41  39  93 CALM      30.27S
$$

SKY/WX REPORTED AS FAIR MEANS FEW OR NO CLOUDS BELOW
12 THOUSAND FEET.




USA.gov is the U.S. government's official web portal to all federal, state and local government web resources and services.